Showing default

QIANFAN-19, 61552

Orbit data source: Space-Track

QIANFAN-19, 61552 is a Chinese payload satellite in LEO that was launched on Tue, 15 Oct 2024 UTC via a CHANG ZHENG 6A launch vehicle from the Taiyaun Space Center, China (TSC). Payloads include a variety of satellites, spacecraft, and rockets equipped with specific instruments for various scientific and technological missions. These include communications satellites like Starlink; space stations such as the ISS; scientific satellites like the Hubble; Earth observation satellites from companies like Planet Labs, Umbra, and HawkEye 360; GPS; miniature CubeSats for education and research; and military/defense satellites.

Loading next visibility...
QIANFAN-19 details
Identifier
61552, 2024-185A
Orbit
LEO
Last TLE update7 hours ago
Origin
Flag of CNYUANX (CN / PRC)
ManufacturerGESIH/SECM
MissionOperational Commercial Communications
Bus & MotorQIANFAN, Unknown motor
Mass300 kg wet, ~300 kg dry
Launch date (UTC)
2024-10-15 (4 months ago)
Launch vehicle
CHANG ZHENG 6A
Launch site
Taiyaun Space Center, China (TSC)
Object type
Payload
Rocket body
Debris
Shape & HBRBox + 1 Pan, 10 m
Radar Cross Section13.200 m², Large (>1 m²)

Expand to show TLE details & history

TLE from 7 hours ago
0 QIANFAN-19
1 61552U 24185A   25035.87162793  .00000850  00000-0  44130-3 0  9995
2 61552  88.9891 113.5054 0006445 207.3957 152.6890 14.13876387 25731
Epoch: 2025-02-04T20:55Z
Definitive object data (Epoch: 2025-02-04T20:55:08.653Z)
Latitude-0.00007°
Longitude24.44865°
Altitude853.32 km
Speed7.424 km/s
True Right ascension07h 34m 01s
True Declination0° 00' 00"
Sunlit
Object was in full shadow at TLE epoch
Visualization TLE readout
Latitude62.37627°
Longitude26.33724°
Altitude860.71 km
Speed7.426 km/s
Apparent Right ascension15h 32m 24s
Apparent Declination44° 56' 12"
Sunlit
Object is in full shadow
Visualization observer readout
Local Sidereal Time06:02:11
Azimuth25.499° NE
Elevation1.27°
Doppler factor1
Orbital elements
Apogee altitude847.751 km
Perigee altitude838.443 km
Semi-major axis7,221.234 km
Eccentricity0.0006445
Inclination88.9891°
RAAN113.5054°
Arg. of periapsis207.3957°
True anomaly152.72286°
Mean anomaly152.689°
Eccentric anomaly152.70593°
Mean motion3.53693 °/min
BSTAR0.0004413
Orbital period101.78 mins
Loading maneuver chart data...
Loading historical data...
Loading historical data...
Loading historical data...
Loading historical data...
Loading historical data...
Loading historical data...
Loading historical data...

QIANFAN-19 Visibility forecast

Observer location: undefined°, undefined

Span
Click to sort rows by Start time (UTC) header in descending order
Start Az.
Max El. time (UTC)
Max El. Az.
Max El.
End time (UTC)
End Az.
10 mins2025-02-05 05:31:25.084Z178.194° S2025-02-05 05:36:25.084Z352.711° N44.277°2025-02-05 05:41:25.084Z358.875° N
7 mins2025-02-05 16:12:25.084Z39.982° NE2025-02-05 16:15:25.084Z78.155° E19.666°2025-02-05 16:19:25.084Z126.681° SE
9 mins2025-02-05 17:53:25.084Z344.528° N2025-02-05 17:57:25.084Z283.21° WNW35.954°2025-02-05 18:02:25.084Z206.41° SW
|